Vorticity
nan nan nan nan nan nan nan nan nan nan nan nan nan nan nan nan nan nan nan nan nan nan nan nan nan nan nan nan nan nan nan nan nan nan nan nan nan nan nan nan nan nan nan
nan 8 9 7 6 8 10 9 8 9 7 7 6 6 6 7 7 6 6 5 6 6 6 5 6 6 5 4 5 6 7 6 5 5 -0 1 3 4 4 3 14 8 nan
nan 5 6 5 6 7 9 8 9 10 9 5 5 7 6 6 6 7 6 5 5 6 5 5 6 5 4 5 6 6 5 5 4 1 1 3 6 5 5 5 5 5 nan
nan 5 5 6 6 5 5 5 7 9 9 7 9 7 7 6 6 6 6 6 5 6 7 6 5 5 4 4 4 5 3 3 3 2 10 4 4 6 5 5 5 5 nan
nan 7 5 4 4 6 5 4 6 7 7 6 9 10 9 7 6 6 6 7 6 6 7 6 5 5 4 3 3 2 2 3 2 11 5 6 8 6 4 7 5 3 nan
nan 7 7 8 6 2 2 3 4 5 5 8 10 10 10 9 6 7 6 6 7 6 5 5 5 4 3 3 4 4 6 7 9 10 7 4 8 7 4 7 9 7 nan
nan 5 6 7 8 4 2 2 3 6 7 8 10 9 8 9 8 6 6 6 6 5 5 5 4 3 3 4 6 11 12 5 11 7 7 5 7 5 6 5 5 -0 nan
nan 2 4 5 5 7 2 1 2 6 6 9 11 13 8 4 6 6 7 6 5 5 4 4 4 3 4 4 6 10 8 8 6 5 4 7 5 4 5 5 7 2 nan
nan 4 8 9 0 2 2 1 2 4 3 5 7 9 10 8 7 6 6 6 6 5 5 4 4 4 5 5 5 5 4 6 6 6 8 8 4 4 5 6 7 5 nan
nan 1 5 5 3 6 4 3 3 3 3 5 10 7 3 4 6 7 5 4 6 5 6 5 5 5 5 4 3 4 6 8 5 7 6 9 5 5 5 5 5 10 nan
nan 6 4 3 8 7 8 9 6 5 8 5 4 9 6 3 6 -0 4 8 5 5 5 5 5 4 4 7 7 5 3 10 5 7 9 8 3 5 5 5 6 1 nan
nan 4 6 8 8 5 5 7 8 7 6 9 6 5 9 3 5 8 5 5 5 4 6 6 6 6 9 9 11 6 6 5 5 5 13 8 5 5 5 7 7 2 nan
nan 8 4 9 10 6 6 5 7 8 7 7 9 4 8 8 6 4 6 7 4 7 10 8 8 4 5 8 6 7 9 6 8 6 12 8 6 6 6 6 8 5 nan
nan 6 8 8 6 7 6 7 8 9 8 7 8 10 7 8 7 6 7 8 6 7 9 9 5 8 7 7 6 8 8 8 7 9 9 8 4 5 8 9 8 6 nan
nan 6 7 5 8 6 7 8 7 7 9 7 6 8 9 7 7 8 6 6 9 9 8 8 6 6 10 9 9 8 8 7 8 7 9 9 5 6 9 9 8 13 nan
nan 7 8 6 6 6 8 6 6 5 8 7 7 6 7 6 9 8 7 7 7 8 6 6 6 7 6 9 8 6 11 11 9 6 7 10 10 7 7 6 10 15 nan
nan 8 6 6 7 7 8 6 5 8 6 7 7 6 6 9 7 6 7 6 8 7 8 8 8 7 7 8 8 6 6 7 8 8 7 9 16 10 2 4 7 7 nan
nan 7 5 7 8 8 6 5 6 9 5 7 8 7 7 8 7 7 5 7 6 7 8 7 10 9 10 9 5 7 7 6 6 8 7 7 7 13 13 7 4 2 nan
nan 7 6 8 8 7 5 6 6 7 7 7 8 6 7 7 6 5 7 7 6 8 7 8 8 10 9 10 8 7 6 7 6 6 8 8 10 9 12 11 7 8 nan
nan 8 7 6 7 5 5 7 8 6 8 7 6 7 6 6 6 7 5 6 10 8 7 6 6 9 7 8 7 9 10 10 9 7 9 10 9 9 8 7 13 11 nan
nan 9 8 6 5 5 7 7 8 7 8 7 7 8 7 7 6 6 7 8 10 7 7 8 8 5 6 9 9 8 12 12 11 9 8 11 10 9 10 10 8 11 nan
nan 7 8 8 6 5 5 7 8 10 8 8 9 7 8 8 7 5 6 7 8 10 9 8 8 9 8 7 12 10 12 12 5 9 9 8 7 12 10 7 7 9 nan
nan 8 8 9 7 6 6 8 7 7 8 9 8 9 9 8 7 6 7 9 7 8 10 10 9 8 9 8 8 13 9 8 10 7 6 7 9 11 10 7 8 8 nan
nan 8 9 9 8 7 7 4 8 5 7 8 8 11 9 10 7 7 10 11 7 6 11 10 7 7 8 9 9 6 8 6 11 12 7 4 7 10 11 10 10 6 nan
nan 8 9 8 7 7 5 5 6 7 9 8 7 7 8 9 10 9 8 8 8 8 7 7 7 8 7 6 9 8 8 8 7 4 6 11 10 7 6 11 11 9 nan
nan nan nan nan nan nan nan nan nan nan nan nan nan nan nan nan nan nan nan nan nan nan nan nan nan nan nan nan nan nan nan nan nan nan nan nan nan nan nan nan nan nan nan
CAPE
48 310 216 504 382 552 844 1301 1256 840 1000 1112 1447 1588 1356 1682 1395 1409 1607 1509 1499 1617 1952 2056 1920 1954 1676 1593 1528 1404 2001 2247 2155 2293 2403 2242 2182 2165 2250 2129 2077 1892 2293
66 380 380 498 283 672 540 1084 941 653 827 755 1053 1482 1662 1546 1277 1197 1729 1816 1890 1587 1750 2162 2176 1560 1281 1721 2100 2017 2162 2049 1977 1887 1415 1898 2013 2107 2102 2221 2577 2395 2382
213 359 351 627 393 588 733 926 783 458 523 249 1031 1481 1575 1434 1575 1683 1924 1892 1920 1855 1871 1791 1523 1603 1797 1978 1945 2006 2085 2018 2232 1965 1705 686 828 1502 1499 1588 1759 1875 2076
192 129 117 546 345 694 599 675 882 458 721 589 886 1172 1481 1617 1614 1650 1667 1899 1587 1282 1238 1435 1558 1667 1700 2059 2295 1925 1852 1855 1568 1589 980 693 582 1640 1895 1727 1645 1573 1653
187 85 94 423 121 172 227 598 718 733 613 593 712 1167 1381 1588 1739 1818 1926 1955 1819 1952 2191 2103 2135 2153 2203 2189 2176 2267 2125 1932 2134 1842 1236 1423 1703 2099 2316 2076 1743 1454 1816
95 97 360 236 167 86 141 254 389 510 550 520 479 917 1284 1526 1833 1847 1952 1906 1946 1847 1829 1802 1501 1516 1870 1776 1358 1388 1601 1970 2086 1217 1303 1063 1772 1988 1733 1414 929 1590 1001
63 220 131 171 170 115 77 124 216 301 298 229 289 747 1062 1222 1775 1930 2101 2039 2133 1647 1404 1305 1426 1679 1324 925 1281 2032 2106 1467 1224 1274 1171 1312 1397 1638 943 1066 1580 1362 495
86 36 141 176 86 131 144 91 47 217 287 202 259 828 1209 1531 1630 1888 2046 1817 1817 1733 1552 1402 1368 1065 603 870 1642 2393 1845 1462 1013 773 823 955 579 1132 1320 1604 1900 962 156
21 59 150 211 115 74 93 106 39 191 202 243 241 909 1587 1403 1341 1406 1237 1123 1075 1001 915 940 970 922 1058 1402 1781 1902 1796 1615 1002 692 486 944 315 1282 1621 1683 1987 1428 1081
6 9 6 301 161 566 314 212 216 124 235 374 550 1305 1498 1577 1721 1601 2196 1575 1257 1189 1203 1146 1146 1367 1609 1669 1896 1956 1480 1601 763 722 707 933 431 1029 1660 1875 2112 1970 1597
361 150 33 176 299 823 666 517 854 874 480 548 1354 1263 1440 652 577 1604 1754 1523 1505 1457 1439 1445 1581 1755 1927 1565 1467 1902 2292 846 722 883 890 457 392 852 1606 1920 2225 1192 624
497 513 556 461 721 768 1273 1464 1672 1025 1475 1463 1247 995 685 760 924 666 1403 2151 1954 1866 1963 1963 1949 1916 1596 884 1400 1568 1358 854 1402 1436 1264 822 560 957 1516 1969 2316 1620 1097
414 597 666 516 774 932 1741 1365 944 1923 1110 920 1048 796 800 581 577 587 914 1291 1293 1086 1329 1234 1463 1530 1335 1402 1122 1028 985 1264 1247 1286 1204 1145 878 1016 1360 1939 2429 1826 2094
406 719 786 975 1002 736 918 759 520 463 507 490 979 1316 1128 544 790 824 798 973 1444 1844 2094 2127 1300 1914 2175 2152 1628 1132 955 985 981 1100 1571 1313 1110 980 1249 1905 2495 2451 2232
367 570 607 861 1194 1246 1229 550 722 676 517 636 805 1242 703 547 884 1126 1622 1742 2036 1903 1806 1953 1858 1974 2111 1759 1491 1120 1017 910 1132 1183 1043 1597 1182 1136 1722 2188 1918 1595 1398
251 410 665 840 1134 1191 831 1299 1180 1006 1100 1172 1028 1329 1531 1220 1867 1750 1924 1888 1887 1965 1958 2022 2401 2068 1645 1167 1082 1118 1051 1121 1533 1639 957 1173 1021 1040 1974 1507 1826 1383 1115
257 404 700 782 702 916 940 1477 1267 1254 1133 1179 1184 1756 1836 1962 2194 1897 1825 1847 1534 2093 2489 1968 2039 1560 1263 921 999 1013 956 1255 1067 1254 1377 1682 1464 1791 1840 670 1720 1919 2273
485 797 785 321 361 490 888 1348 1175 1176 1064 1119 1124 1353 1711 2271 2280 1961 1473 1421 1641 1820 1770 1704 1588 1401 1272 790 819 979 1043 1283 1623 1575 1495 1476 1126 842 1348 508 460 915 1490
945 984 1027 729 633 664 1189 1144 1292 1318 1056 1224 1131 1001 1690 2001 2138 1787 1264 1038 1376 1542 1765 1630 1538 1814 1487 1398 1059 939 1095 1087 1121 896 1247 689 790 1054 1222 421 176 369 936
1025 1116 1059 939 1186 1334 1166 1398 1118 1033 1016 1114 1064 873 1263 1661 2080 1611 1188 1067 875 958 1482 1715 2378 1989 1612 1535 1003 810 1132 1051 1028 1161 640 391 874 1035 1207 1526 1612 1443 1116
1133 1144 1177 1060 1284 1547 1249 1011 977 876 1041 1169 1313 1536 1866 1664 2120 2046 1105 463 491 771 1735 2188 1999 1541 1188 953 990 492 548 512 544 686 558 657 929 777 988 1634 1849 1916 1877
1279 1292 940 899 1479 1697 1186 1174 994 1099 1069 1270 1444 1865 2085 2077 2381 1556 1224 751 1059 584 1092 1926 2043 1640 982 832 819 602 435 510 322 595 955 1081 1276 927 1229 1492 1446 1905 1657
1316 1512 1205 1003 1427 1599 1164 1317 1622 1529 1603 1473 1577 1565 1839 1800 1981 1935 1876 941 940 1214 859 1552 1136 1747 1022 961 1114 621 365 200 186 656 915 1078 1303 1176 1040 1341 1342 1723 2042
1286 1560 1430 1386 1444 1632 1778 1470 1464 1100 893 947 1097 1227 1481 2080 1930 1751 852 715 807 752 1346 1375 1511 1854 2060 1072 1014 817 1440 1256 821 541 713 856 531 664 1387 1205 1308 1599 1935
1187 1432 1417 1709 1559 1416 1667 1753 2192 1622 903 1210 1055 1942 1633 1856 1648 1690 996 578 1303 1559 1814 2365 2542 2232 1698 1702 994 822 1322 1018 1260 1101 338 478 816 417 1200 1418 1747 1434 1668
1156 1365 1354 1871 1976 1821 1751 1931 2014 1566 1449 1105 1114 1410 1175 1289 1680 2063 1883 1830 1510 1863 2414 2393 2235 1824 2722 2041 1437 1415 814 592 432 580 601 533 289 613 762 1377 1540 1415 1505